Wind_Speed
13 14 13 12 12 15 8 1 2 3 3 3 4 5 5 4 2 4 3 2 1 1 2 1 2 2 3 4 5 6 7 8 8 8 8 8 8 9 9 9 9 9 9 8 8 8 7 7 7
10 10 9 9 12 11 3 3 3 3 2 3 4 4 5 4 4 5 4 3 2 1 1 1 2 3 4 5 6 7 8 8 8 9 9 9 9 9 9 9 9 8 8 8 8 7 7 7 6
7 7 6 7 10 6 2 5 5 3 2 3 4 4 4 4 4 5 4 3 2 3 3 4 4 5 5 6 7 8 8 9 9 9 9 9 10 10 10 10 10 9 9 9 8 8 7 7 6
3 5 4 7 4 3 3 6 4 4 4 3 5 5 5 5 5 5 4 4 4 4 5 6 7 7 7 7 8 9 10 10 11 11 11 11 11 11 11 11 11 11 10 10 10 9 9 8 8
3 3 3 6 4 3 4 5 4 6 5 6 7 6 6 6 6 6 6 5 5 5 7 8 9 9 9 9 10 10 11 12 12 13 13 13 13 13 13 13 12 13 12 12 11 11 10 10 9
5 5 2 8 10 6 6 7 5 7 6 7 9 8 8 8 7 7 7 6 6 7 8 9 10 10 11 11 11 12 13 14 15 15 16 16 16 15 15 15 14 14 14 14 14 13 12 12 12
9 7 3 6 13 9 10 9 8 8 8 9 9 10 10 9 8 8 8 8 9 9 10 10 11 12 12 13 14 15 16 17 17 18 19 19 18 18 18 18 17 17 17 16 16 15 15 14 14
11 10 5 4 12 13 13 11 11 12 14 11 11 13 11 10 8 8 9 10 11 11 12 13 13 14 15 15 16 17 18 19 20 21 21 21 21 21 21 20 20 20 20 19 19 19 18 18 17
13 11 6 5 12 13 12 10 11 14 16 13 15 16 12 10 9 9 9 11 12 14 14 15 15 16 16 17 18 19 20 21 21 22 22 23 23 23 23 24 24 23 22 22 22 22 22 22 21
15 14 9 9 14 12 10 9 11 13 15 16 17 16 13 11 10 10 12 13 15 16 17 17 17 18 19 19 20 21 21 22 22 22 23 24 25 25 26 26 27 26 25 25 26 26 26 26 25
18 18 17 15 16 19 16 13 13 14 19 19 20 16 10 10 12 13 14 16 17 18 19 20 21 21 22 22 22 22 22 22 23 23 24 25 26 27 27 27 27 28 28 28 28 29 29 30 29
21 22 23 24 23 23 21 18 16 16 21 25 25 18 10 14 15 16 17 18 19 21 22 23 24 25 25 25 24 24 24 24 24 24 24 25 26 27 28 28 28 28 28 29 29 30 31 32 32
23 24 24 25 26 24 23 21 20 21 24 26 28 26 18 18 20 21 22 23 23 24 26 26 27 27 27 27 26 26 25 25 25 25 25 26 27 27 27 27 28 28 28 28 29 30 31 32 34
22 24 26 26 25 23 24 23 21 21 26 28 28 25 22 21 24 25 25 27 26 28 29 29 29 29 28 28 27 27 26 25 25 26 26 26 26 27 27 27 27 26 26 26 26 27 29 30 32
23 24 25 24 22 21 22 23 20 20 26 29 29 27 25 26 26 28 29 30 31 32 32 32 32 30 29 29 28 28 27 26 26 26 26 26 26 26 26 25 24 24 24 24 24 25 26 28 30
20 21 22 20 18 18 22 23 18 22 27 29 30 30 30 31 30 31 32 32 34 35 35 34 34 32 30 30 29 28 28 27 26 26 26 25 25 25 24 23 22 22 21 21 22 23 25 26 28
13 15 16 13 14 20 23 21 19 26 29 30 30 30 32 34 34 34 34 35 36 36 36 35 35 33 31 30 30 29 28 28 27 27 26 25 24 23 23 22 20 20 20 20 21 22 23 25 27
8 10 12 11 16 24 24 20 20 27 29 30 30 32 34 37 37 37 38 37 38 38 36 35 35 34 33 32 31 30 29 28 28 26 25 25 24 22 21 20 19 19 19 20 21 21 23 24 25
15 15 13 14 21 27 25 22 23 28 31 32 31 34 37 36 37 39 38 37 38 38 36 37 35 35 35 34 33 32 30 29 27 25 25 24 23 22 20 20 19 19 19 20 21 21 23 24 26
9 12 14 16 19 25 28 27 26 29 32 35 35 37 37 39 41 40 36 37 37 37 37 37 36 37 37 37 34 33 32 30 29 26 25 25 24 22 21 21 21 21 21 21 22 22 23 24 26
4 8 11 17 20 20 20 21 20 22 27 31 33 32 33 36 36 35 34 34 35 37 38 39 37 37 38 37 35 34 33 32 29 27 26 26 25 24 24 23 23 23 23 23 23 23 24 24 26
7 12 16 18 20 18 17 18 17 22 27 29 29 27 27 29 29 33 35 35 35 36 37 36 35 36 36 36 36 34 34 32 30 28 27 26 26 26 26 26 26 26 26 26 25 25 25 26 26
11 13 14 13 13 12 13 16 17 24 28 28 28 27 27 26 27 31 33 31 33 36 36 37 35 36 37 37 37 35 35 33 31 29 28 28 28 29 29 29 30 30 30 29 28 28 27 27 27
9 8 6 10 14 18 19 20 21 24 26 27 29 30 30 30 30 31 31 32 34 34 34 36 37 36 37 37 38 36 36 35 33 31 30 30 31 31 32 32 33 33 32 32 31 30 30 29 28
11 9 11 16 20 21 14 12 18 20 22 25 28 31 33 32 31 31 32 33 33 34 35 36 37 37 37 39 40 38 37 36 36 35 33 33 34 34 35 35 35 35 34 34 33 32 32 30 30
9 8 12 17 18 20 19 16 20 22 24 25 27 30 31 33 33 33 34 35 35 36 38 40 41 42 43 43 43 42 42 41 40 39 38 37 37 37 38 37 38 37 37 36 35 34 33 32 31
9 7 9 13 13 13 15 24 27 27 25 25 26 30 34 36 37 37 38 39 40 42 43 45 46 47 48 48 49 49 48 47 46 45 44 43 41 41 41 40 40 39 39 38 37 35 34 33 32
11 11 12 13 15 14 14 26 31 30 28 26 31 35 36 38 39 41 42 44 45 47 49 50 51 52 53 54 55 55 55 54 53 52 51 49 47 46 45 44 42 41 41 40 39 37 36 34 33
10 11 14 16 16 18 19 28 32 33 34 37 37 38 40 42 44 46 47 48 50 51 53 54 56 57 58 59 59 60 60 60 59 58 57 55 53 51 50 48 46 43 42 42 40 39 37 36 34
11 14 17 19 19 20 22 29 31 34 36 38 41 42 44 47 49 51 52 53 54 55 56 58 59 60 61 62 63 63 64 64 64 63 62 61 59 57 54 52 49 47 45 44 42 41 39 37 35
Wind_Direction
80 78 83 90 91 79 78 83 205 224 236 220 213 211 219 234 250 194 197 188 165 127 99 66 19 5 358 352 345 341 339 339 339 340 341 343 347 350 353 356 0 3 4 3 1 1 4 9 14
90 87 90 89 81 92 83 298 270 267 248 224 206 213 217 206 198 190 198 206 219 253 277 303 311 318 323 326 327 327 327 327 327 327 329 331 333 336 338 340 344 347 349 351 349 347 345 346 352
105 101 91 72 62 74 41 310 316 302 262 258 241 237 228 215 204 203 217 223 244 277 288 294 299 304 308 313 317 319 319 318 319 320 322 323 323 324 327 327 327 328 331 333 334 332 329 326 325
124 106 93 66 45 44 319 306 325 302 283 260 256 241 238 236 230 235 237 246 267 288 297 301 304 308 311 315 317 316 316 315 316 317 318 319 319 318 318 318 317 316 316 317 318 319 317 313 310
194 155 68 357 289 263 279 284 281 270 274 273 270 261 254 251 254 257 261 267 281 295 302 308 311 313 316 318 318 317 316 315 315 315 316 316 316 315 314 313 312 310 308 306 306 307 307 307 306
227 204 48 305 291 274 275 281 270 274 288 274 271 266 264 263 265 271 276 282 293 303 309 314 315 317 318 318 317 316 315 314 313 312 312 312 312 311 310 308 306 304 302 301 299 299 298 299 300
241 232 205 297 299 296 279 278 270 267 271 260 272 274 268 265 269 277 283 290 300 306 310 312 312 312 312 312 310 309 308 308 308 308 308 308 308 307 305 304 302 300 298 297 295 293 292 291 291
245 237 217 278 287 278 275 277 273 269 257 251 264 267 264 263 267 279 288 298 304 308 310 312 312 311 309 309 307 305 304 304 304 303 303 303 303 302 300 299 297 294 292 292 290 288 286 285 284
244 233 223 269 272 265 268 268 265 263 265 271 267 268 265 266 270 281 293 303 309 311 312 314 315 313 311 311 309 308 306 304 303 301 300 300 299 298 297 296 294 292 289 287 285 283 281 280 280
239 229 214 249 263 260 260 259 259 269 261 260 257 253 256 265 277 290 300 308 312 314 316 318 319 317 315 314 312 309 307 305 303 301 298 297 296 295 294 293 292 290 287 284 282 280 278 276 275
238 231 221 224 244 245 248 256 259 264 260 253 247 235 237 270 280 293 302 308 312 315 318 320 321 319 317 315 313 309 306 304 302 300 297 295 295 293 292 291 289 287 285 283 281 278 276 275 272
245 237 234 234 240 248 249 248 249 252 260 268 270 268 267 285 289 295 301 306 311 314 317 320 320 319 318 316 313 310 306 304 301 298 296 294 293 293 292 290 289 287 285 284 283 281 279 277 275
248 246 243 247 249 253 252 250 250 254 255 260 269 275 282 289 293 297 300 303 307 310 313 316 317 317 316 315 312 309 306 304 301 298 296 295 294 293 291 290 288 287 287 287 286 284 281 279 277
254 249 245 247 251 253 255 254 252 259 264 265 270 273 279 284 289 292 296 299 302 306 308 310 312 313 313 312 310 308 306 303 301 298 295 293 292 292 291 290 289 289 290 292 292 290 288 285 283
260 257 255 251 252 257 259 257 255 258 263 266 269 272 279 280 284 289 293 296 299 300 302 305 306 308 308 307 307 307 305 301 299 297 294 292 291 291 291 290 290 290 290 292 294 294 293 290 288
267 264 258 253 256 259 257 257 255 255 257 263 268 271 275 279 282 286 289 292 294 296 298 300 301 303 303 303 303 303 302 299 298 296 294 292 291 290 289 289 290 291 292 294 296 297 297 295 293
279 281 274 263 253 246 250 256 255 256 257 262 264 268 273 277 279 283 285 287 290 291 292 294 295 297 298 299 299 299 299 297 296 295 293 290 288 287 286 286 287 289 292 296 299 301 301 301 299
267 272 278 270 245 243 246 248 250 259 260 262 268 271 273 275 278 282 283 285 286 286 286 289 289 293 294 295 297 297 295 294 292 292 290 288 285 283 282 283 285 289 294 297 300 303 305 306 304
237 221 221 230 239 247 250 251 249 254 264 266 268 272 273 271 276 279 279 279 283 283 284 286 285 289 289 291 293 293 291 291 290 290 286 282 280 279 280 282 286 289 293 297 301 305 307 308 308
256 241 232 239 252 258 260 261 260 259 265 270 272 275 276 274 278 280 278 278 279 280 281 283 282 285 288 289 290 292 291 291 289 287 283 278 275 275 276 280 284 288 292 296 299 303 307 309 310
262 252 244 242 246 255 271 277 276 271 268 271 274 276 278 276 275 275 278 274 276 277 278 279 283 283 285 287 288 288 289 290 287 284 279 275 273 273 274 278 282 286 289 293 296 301 304 308 310
255 246 246 253 259 262 265 271 273 267 266 271 271 276 276 276 277 277 277 276 276 277 277 278 279 281 284 288 288 287 288 287 285 282 278 273 272 272 275 278 282 286 288 291 294 298 301 304 307
272 265 266 268 270 266 259 261 262 260 263 270 279 284 284 292 291 284 280 276 278 279 277 280 283 283 285 286 287 287 289 289 286 282 279 276 274 275 276 279 282 285 286 289 291 294 297 300 303
299 291 278 280 272 263 251 248 246 253 267 276 284 290 295 297 293 288 284 283 282 279 279 283 285 284 284 284 286 286 288 288 286 282 280 279 277 277 277 280 281 283 284 286 288 290 292 295 298
298 297 298 302 305 305 288 265 252 261 274 282 287 293 296 295 293 290 288 287 284 282 284 285 285 284 285 285 286 287 286 286 284 282 281 280 279 278 278 280 281 282 282 283 284 286 288 291 294
310 302 303 305 313 321 320 297 275 276 277 281 288 294 298 297 295 293 290 288 286 284 285 285 285 285 285 285 285 284 284 284 283 282 280 279 278 278 278 279 280 280 280 281 281 282 283 286 289
330 319 298 301 308 308 305 294 288 282 278 279 287 296 298 298 297 295 293 291 288 287 285 284 284 283 283 282 282 282 281 281 280 280 279 277 275 275 275 276 276 276 277 278 277 277 279 281 284
321 324 320 312 306 303 298 295 297 297 297 298 301 301 299 297 296 295 293 291 289 287 286 284 283 282 281 281 280 280 280 279 277 276 276 275 273 272 271 270 270 271 272 273 273 272 274 276 279
305 314 308 306 303 297 296 294 294 299 300 301 301 300 298 296 294 292 290 288 287 285 283 282 281 280 279 279 278 278 277 277 276 275 275 274 272 271 269 268 266 267 268 268 268 268 269 271 273
315 323 321 316 312 306 303 293 295 296 297 298 299 298 296 294 293 291 290 288 286 285 283 282 281 280 278 277 277 276 276 275 274 273 272 271 270 269 268 267 265 264 263 263 263 263 265 266 269
Height
5921 5921 5921 5922 5922 5920 5922 5923 5921 5920 5919 5918 5918 5917 5916 5917 5918 5921 5918 5918 5918 5918 5918 5918 5918 5918 5918 5917 5917 5916 5915 5915 5914 5913 5912 5911 5910 5909 5907 5906 5905 5904 5903 5902 5901 5900 5899 5898 5897
5923 5924 5924 5923 5921 5921 5923 5923 5921 5920 5919 5918 5917 5917 5916 5917 5917 5918 5917 5917 5918 5918 5918 5918 5918 5918 5917 5917 5916 5916 5915 5914 5913 5913 5912 5911 5910 5909 5908 5906 5905 5904 5903 5902 5901 5900 5899 5899 5898
5923 5924 5925 5923 5922 5921 5924 5923 5922 5921 5920 5919 5918 5918 5918 5918 5918 5917 5917 5917 5917 5917 5917 5917 5917 5917 5916 5916 5915 5915 5914 5913 5913 5912 5911 5910 5909 5908 5907 5906 5905 5904 5903 5902 5901 5900 5899 5899 5898
5924 5925 5925 5924 5924 5923 5924 5924 5923 5921 5920 5919 5918 5918 5917 5918 5918 5917 5917 5917 5917 5916 5916 5916 5916 5916 5915 5915 5914 5914 5913 5912 5912 5911 5910 5909 5908 5907 5906 5905 5904 5903 5902 5901 5900 5900 5899 5898 5898
5924 5925 5925 5925 5924 5924 5923 5923 5922 5921 5920 5919 5918 5918 5917 5917 5917 5917 5916 5916 5916 5916 5916 5915 5915 5915 5914 5914 5913 5912 5912 5911 5911 5910 5909 5908 5907 5906 5905 5904 5903 5902 5901 5900 5899 5899 5898 5897 5897
5923 5924 5925 5926 5924 5922 5921 5922 5922 5920 5919 5918 5917 5917 5917 5917 5916 5916 5915 5915 5915 5915 5914 5914 5914 5913 5913 5912 5911 5911 5910 5909 5909 5908 5907 5905 5904 5903 5902 5901 5900 5900 5899 5898 5898 5897 5897 5896 5895
5922 5923 5924 5926 5925 5922 5920 5921 5921 5920 5919 5918 5916 5916 5915 5915 5915 5914 5914 5914 5913 5914 5913 5913 5912 5911 5911 5910 5909 5909 5908 5907 5906 5905 5904 5903 5901 5900 5899 5898 5898 5897 5896 5896 5895 5895 5894 5894 5893
5920 5922 5923 5926 5925 5923 5919 5920 5920 5919 5917 5916 5916 5914 5913 5913 5913 5913 5912 5912 5911 5912 5911 5910 5910 5909 5908 5907 5907 5906 5905 5904 5903 5902 5901 5899 5898 5897 5896 5895 5894 5893 5893 5892 5892 5891 5891 5891 5890
5917 5920 5921 5924 5923 5920 5918 5918 5918 5916 5915 5913 5913 5911 5911 5911 5911 5911 5910 5910 5909 5909 5908 5908 5907 5906 5905 5904 5903 5902 5901 5900 5899 5898 5897 5896 5894 5893 5892 5891 5890 5889 5888 5888 5887 5887 5887 5886 5886
5914 5916 5919 5921 5919 5917 5915 5916 5917 5915 5913 5910 5910 5908 5908 5909 5909 5909 5909 5908 5907 5906 5906 5905 5904 5903 5902 5901 5900 5898 5897 5896 5895 5893 5892 5891 5889 5888 5887 5886 5884 5884 5883 5882 5882 5882 5881 5881 5881
5909 5911 5913 5914 5915 5914 5914 5915 5915 5914 5909 5903 5900 5900 5901 5906 5906 5907 5906 5905 5905 5903 5903 5901 5901 5899 5898 5897 5896 5894 5893 5892 5890 5889 5887 5886 5884 5883 5881 5881 5879 5878 5877 5876 5876 5875 5875 5875 5875
5904 5906 5907 5908 5909 5909 5911 5912 5912 5910 5906 5902 5900 5897 5899 5902 5901 5902 5903 5902 5902 5901 5899 5898 5897 5895 5894 5893 5891 5890 5888 5887 5885 5884 5882 5880 5879 5877 5876 5874 5873 5872 5871 5871 5870 5869 5868 5868 5868
5899 5901 5902 5904 5904 5905 5906 5907 5908 5907 5904 5901 5898 5897 5898 5899 5899 5899 5899 5899 5898 5897 5896 5895 5893 5891 5890 5888 5886 5885 5883 5882 5880 5878 5876 5875 5873 5872 5870 5869 5867 5866 5865 5864 5864 5862 5861 5861 5860
5894 5894 5896 5898 5900 5901 5902 5903 5904 5904 5901 5898 5895 5894 5894 5895 5896 5896 5895 5894 5892 5891 5891 5889 5888 5886 5885 5883 5881 5880 5878 5876 5874 5873 5871 5869 5868 5866 5864 5863 5862 5860 5859 5858 5857 5856 5855 5854 5854
5888 5889 5891 5893 5895 5897 5898 5899 5900 5901 5897 5894 5893 5892 5890 5891 5891 5890 5889 5888 5887 5886 5885 5884 5882 5881 5879 5878 5876 5875 5873 5871 5869 5867 5866 5864 5862 5861 5859 5858 5857 5855 5854 5853 5852 5851 5849 5848 5847
5884 5885 5886 5890 5892 5894 5896 5896 5897 5895 5893 5891 5889 5888 5887 5887 5887 5885 5884 5882 5881 5880 5879 5877 5876 5875 5873 5872 5870 5869 5867 5865 5864 5862 5860 5859 5857 5856 5854 5853 5852 5851 5849 5848 5847 5845 5844 5842 5841
5881 5882 5884 5887 5890 5891 5891 5892 5893 5890 5889 5887 5886 5885 5883 5882 5882 5880 5878 5876 5874 5873 5871 5871 5869 5868 5867 5865 5864 5863 5861 5859 5857 5856 5855 5853 5852 5851 5850 5848 5847 5846 5845 5843 5842 5840 5839 5837 5835
5880 5884 5885 5887 5887 5885 5885 5887 5888 5884 5882 5882 5880 5879 5877 5875 5874 5873 5871 5868 5867 5865 5862 5862 5862 5861 5860 5858 5857 5856 5855 5853 5851 5850 5849 5848 5847 5846 5845 5843 5842 5841 5840 5838 5837 5835 5833 5831 5829
5875 5878 5881 5883 5881 5879 5879 5881 5881 5879 5877 5876 5875 5873 5870 5866 5865 5864 5862 5861 5859 5857 5853 5854 5853 5853 5852 5851 5849 5848 5847 5846 5845 5844 5843 5842 5842 5841 5840 5839 5838 5836 5835 5834 5832 5830 5828 5826 5823
5872 5874 5876 5877 5875 5874 5874 5875 5875 5874 5873 5870 5869 5868 5863 5859 5857 5855 5851 5851 5850 5849 5847 5845 5845 5846 5844 5843 5841 5841 5839 5839 5838 5838 5837 5836 5836 5835 5834 5833 5832 5831 5830 5828 5827 5825 5823 5820 5817
5871 5872 5872 5871 5869 5870 5870 5870 5870 5868 5866 5864 5862 5859 5856 5854 5850 5846 5844 5843 5842 5841 5840 5838 5839 5838 5836 5835 5833 5833 5833 5832 5832 5831 5831 5830 5830 5829 5828 5828 5827 5825 5824 5823 5821 5819 5817 5815 5812
5867 5866 5866 5866 5865 5866 5867 5866 5866 5862 5859 5856 5851 5850 5848 5843 5843 5842 5838 5836 5834 5834 5831 5829 5829 5830 5829 5827 5826 5826 5826 5825 5825 5824 5824 5823 5823 5823 5822 5821 5820 5819 5818 5817 5815 5813 5811 5809 5806
5864 5863 5862 5862 5861 5861 5862 5862 5863 5856 5853 5850 5845 5843 5839 5836 5839 5838 5831 5826 5827 5827 5824 5822 5821 5823 5823 5821 5820 5820 5819 5818 5817 5817 5816 5816 5816 5815 5815 5815 5814 5813 5812 5810 5808 5806 5804 5802 5800
5861 5860 5859 5858 5856 5855 5854 5854 5853 5850 5848 5846 5843 5839 5836 5835 5835 5833 5828 5825 5824 5821 5818 5817 5816 5816 5815 5814 5813 5811 5811 5810 5809 5808 5808 5808 5808 5807 5807 5807 5806 5805 5804 5803 5801 5799 5797 5795 5793
5859 5859 5857 5855 5850 5846 5846 5847 5847 5845 5843 5842 5841 5837 5834 5832 5830 5827 5824 5822 5819 5816 5813 5812 5810 5808 5806 5806 5805 5803 5802 5802 5801 5800 5800 5799 5799 5798 5798 5798 5797 5797 5796 5795 5793 5792 5790 5788 5786
5858 5857 5857 5854 5851 5849 5845 5844 5842 5842 5839 5838 5837 5834 5831 5827 5825 5822 5819 5816 5813 5811 5808 5805 5802 5800 5798 5797 5795 5794 5793 5792 5791 5791 5790 5790 5789 5789 5788 5788 5788 5787 5787 5786 5785 5784 5783 5781 5779
5857 5855 5855 5852 5851 5850 5849 5842 5839 5835 5832 5831 5831 5830 5827 5822 5819 5815 5812 5809 5806 5803 5800 5797 5794 5791 5788 5786 5784 5782 5781 5781 5780 5779 5779 5779 5778 5778 5778 5778 5778 5777 5777 5776 5776 5775 5774 5773 5772
5856 5854 5853 5851 5848 5847 5847 5840 5834 5829 5826 5825 5825 5823 5819 5815 5811 5807 5804 5800 5797 5793 5789 5786 5782 5779 5776 5773 5771 5769 5768 5767 5766 5766 5765 5765 5766 5766 5766 5766 5766 5766 5766 5766 5766 5766 5765 5764 5763
5854 5853 5851 5849 5847 5844 5841 5839 5831 5827 5824 5820 5818 5815 5811 5807 5802 5798 5794 5789 5785 5781 5776 5772 5769 5765 5762 5759 5757 5754 5752 5751 5750 5750 5750 5750 5751 5751 5752 5752 5753 5754 5755 5755 5755 5755 5755 5755 5754
5851 5850 5848 5846 5844 5841 5838 5835 5828 5824 5819 5815 5811 5806 5802 5797 5791 5786 5781 5776 5771 5766 5762 5758 5753 5749 5746 5743 5740 5737 5735 5733 5732 5731 5732 5732 5733 5735 5736 5737 5739 5740 5742 5743 5743 5744 5744 5744 5744